Location: Mount Cross
(36.6390°N, 79.4878°W)
Time: 02:11:22
(UTC+00:00)

Vanguard 2 Rocket - Pass Details

Date: 24 March 2023
Orbit: 554 x 3314 km, 32.9° (Epoch: 08 June)

Event Time Altitude Azimuth Distance (km) Brightness Sun altitude
Exits shadow 09:26:52 17° 218° (SW) 5,657 10.4 -22.3°
Drops below altitude 10° 09:35:58 10° 191° (S) 6,160 10.8 -20.5°
Sets 09:43:16 0° 173° (S) 6,904 11.3 -19.1°
